• In Austria
  • List of Countries
  • For 7 days
  • Water Temperature
  • Satellite Maps
  • Weather Map
  • News
  • Weather Widgets
  • user-avatar
    Login

    Hourly Weather Yelsk

    Today, 19 April, Thursday

    Time Temperature Precipitation Wind Pressure Humidity
    00:00 +10°C° 0 mm 5 mps 750 mmHg 65%
    01:00 +10°C° 0 mm 5 mps 750 mmHg 67%
    02:00 +9°C° 0 mm 5 mps 750 mmHg 73%
    03:00 +9°C° 0 mm 5 mps 749 mmHg 74%
    04:00 +9°C° 0 mm 6 mps 749 mmHg 76%
    05:00 +9°C° 0 mm 6 mps 748 mmHg 77%
    06:00 +9°C° 0 mm 7 mps 748 mmHg 77%
    07:00 +9°C° 0 mm 7 mps 748 mmHg 76%
    08:00 +9°C° 0 mm 7 mps 748 mmHg 76%
    09:00 +9°C° 0 mm 7 mps 748 mmHg 74%
    10:00 +9°C° 0 mm 7 mps 747 mmHg 73%
    11:00 +9°C° 0 mm 7 mps 747 mmHg 72%
    12:00 +10°C° 0 mm 7 mps 747 mmHg 69%
    13:00 +10°C° 0 mm 7 mps 747 mmHg 66%
    14:00 +11°C° 0 mm 8 mps 747 mmHg 62%
    15:00 +11°C° 0.1 mm 7 mps 747 mmHg 63%
    16:00 +11°C° 0.1 mm 7 mps 746 mmHg 63%
    17:00 +11°C° 0.1 mm 7 mps 746 mmHg 63%
    18:00 +10°C° 0 mm 6 mps 746 mmHg 66%
    19:00 +9°C° 0 mm 6 mps 747 mmHg 69%
    20:00 +8°C° 0 mm 5 mps 747 mmHg 72%
    21:00 +8°C° 0 mm 5 mps 747 mmHg 73%
    22:00 +8°C° 0 mm 5 mps 748 mmHg 73%
    23:00 +8°C° 0 mm 6 mps 748 mmHg 73%

    Tomorrow, 20 April, Friday

    Time Temperature Precipitation Wind Pressure Humidity
    00:00 +7°C° 0 mm 5 mps 749 mmHg 74%
    01:00 +7°C° 0 mm 5 mps 749 mmHg 75%
    02:00 +7°C° 0 mm 5 mps 749 mmHg 75%
    03:00 +6°C° 0 mm 5 mps 749 mmHg 78%
    04:00 +6°C° 0 mm 5 mps 750 mmHg 82%
    05:00 +5°C° 0 mm 4 mps 750 mmHg 85%
    06:00 +6°C° 0 mm 5 mps 750 mmHg 81%
    07:00 +7°C° 0 mm 5 mps 751 mmHg 78%
    08:00 +8°C° 0 mm 5 mps 751 mmHg 74%
    09:00 +10°C° 0 mm 5 mps 751 mmHg 66%
    10:00 +13°C° 0 mm 5 mps 751 mmHg 58%
    11:00 +14°C° 0 mm 5 mps 751 mmHg 49%
    12:00 +15°C° 0 mm 5 mps 751 mmHg 47%
    13:00 +16°C° 0 mm 5 mps 751 mmHg 45%
    14:00 +16°C° 0 mm 5 mps 751 mmHg 44%
    15:00 +16°C° 0 mm 5 mps 751 mmHg 45%
    16:00 +16°C° 0 mm 5 mps 751 mmHg 45%
    17:00 +17°C° 0 mm 4 mps 751 mmHg 46%
    18:00 +14°C° 0 mm 4 mps 751 mmHg 53%
    19:00 +12°C° 0 mm 3 mps 751 mmHg 59%
    20:00 +12°C° 0 mm 2 mps 751 mmHg 66%
    21:00 +10°C° 0 mm 2 mps 751 mmHg 68%
    22:00 +9°C° 0 mm 2 mps 751 mmHg 70%
    23:00 +9°C° 0 mm 2 mps 751 mmHg 72%

    Day after tomorrow, 21 April, Saturday

    Time Temperature Precipitation Wind Pressure Humidity
    00:00 +9°C° 0 mm 2 mps 750 mmHg 74%
    01:00 +8°C° 0 mm 2 mps 750 mmHg 76%
    02:00 +8°C° 0 mm 2 mps 750 mmHg 78%
    03:00 +8°C° 0 mm 3 mps 749 mmHg 78%
    04:00 +8°C° 0 mm 3 mps 749 mmHg 79%
    05:00 +7°C° 0 mm 3 mps 749 mmHg 79%
    06:00 +8°C° 0 mm 4 mps 748 mmHg 72%
    07:00 +11°C° 0 mm 4 mps 748 mmHg 65%
    08:00 +13°C° 0 mm 5 mps 747 mmHg 58%
    09:00 +15°C° 0 mm 6 mps 746 mmHg 53%
    10:00 +17°C° 0 mm 6 mps 746 mmHg 47%
    11:00 +20°C° 0 mm 7 mps 745 mmHg 41%
    12:00 +21°C° 0 mm 7 mps 744 mmHg 40%
    13:00 +22°C° 0 mm 7 mps 743 mmHg 39%
    14:00 +23°C° 0 mm 8 mps 742 mmHg 39%
    15:00 +22°C° 0.1 mm 7 mps 742 mmHg 43%
    16:00 +21°C° 0.1 mm 7 mps 741 mmHg 48%
    17:00 +21°C° 0.1 mm 6 mps 740 mmHg 53%
    18:00 +19°C° 0.2 mm 6 mps 741 mmHg 58%
    19:00 +16°C° 0.2 mm 5 mps 741 mmHg 63%
    20:00 +14°C° 0.2 mm 5 mps 741 mmHg 68%
    21:00 +13°C° 0 mm 4 mps 742 mmHg 69%
    22:00 +12°C° 0 mm 4 mps 742 mmHg 70%
    23:00 +11°C° 0 mm 4 mps 743 mmHg 71%

    22 April, Sunday

    Time Temperature Precipitation Wind Pressure Humidity
    00:00 +10°C° 0 mm 4 mps 743 mmHg 70%
    01:00 +9°C° 0 mm 3 mps 743 mmHg 70%
    02:00 +8°C° 0 mm 3 mps 744 mmHg 69%
    03:00 +7°C° 0 mm 3 mps 744 mmHg 70%
    04:00 +7°C° 0 mm 3 mps 744 mmHg 72%
    05:00 +5°C° 0 mm 3 mps 745 mmHg 73%
    06:00 +7°C° 0 mm 4 mps 745 mmHg 67%
    07:00 +8°C° 0 mm 4 mps 745 mmHg 61%
    08:00 +11°C° 0 mm 4 mps 745 mmHg 55%
    09:00 +12°C° 0 mm 5 mps 745 mmHg 50%
    10:00 +14°C° 0 mm 5 mps 745 mmHg 45%
    11:00 +15°C° 0 mm 5 mps 745 mmHg 40%
    12:00 +16°C° 0 mm 5 mps 745 mmHg 39%
    13:00 +16°C° 0 mm 5 mps 745 mmHg 38%
    14:00 +16°C° 0 mm 5 mps 744 mmHg 37%
    15:00 +16°C° 0 mm 5 mps 744 mmHg 38%
    16:00 +17°C° 0 mm 4 mps 744 mmHg 40%
    17:00 +16°C° 0 mm 3 mps 744 mmHg 41%
    18:00 +14°C° 0 mm 3 mps 744 mmHg 45%
    19:00 +14°C° 0 mm 2 mps 744 mmHg 49%
    20:00 +13°C° 0 mm 1 mps 744 mmHg 53%
    21:00 +13°C° 0 mm 2 mps 744 mmHg 54%
    22:00 +12°C° 0 mm 2 mps 744 mmHg 55%
    23:00 +12°C° 0 mm 2 mps 744 mmHg 56%

    23 April, Monday

    Time Temperature Precipitation Wind Pressure Humidity
    00:00 +12°C° 0 mm 2 mps 744 mmHg 59%
    01:00 +10°C° 0 mm 2 mps 744 mmHg 62%
    02:00 +10°C° 0 mm 2 mps 744 mmHg 65%
    03:00 +9°C° 0 mm 2 mps 743 mmHg 70%
    04:00 +8°C° 0 mm 2 mps 743 mmHg 74%
    05:00 +8°C° 0 mm 2 mps 743 mmHg 78%
    06:00 +9°C° 0 mm 2 mps 743 mmHg 74%
    07:00 +10°C° 0 mm 2 mps 743 mmHg 69%
    08:00 +13°C° 0 mm 2 mps 743 mmHg 65%
    09:00 +14°C° 0 mm 2 mps 743 mmHg 59%
    10:00 +16°C° 0 mm 2 mps 743 mmHg 52%
    11:00 +17°C° 0 mm 2 mps 743 mmHg 46%
    12:00 +18°C° 0 mm 2 mps 743 mmHg 44%
    13:00 +19°C° 0 mm 1 mps 743 mmHg 42%
    14:00 +20°C° 0 mm 1 mps 742 mmHg 41%
    15:00 +19°C° 0 mm 1 mps 742 mmHg 41%
    16:00 +19°C° 0 mm 1 mps 742 mmHg 41%
    17:00 +19°C° 0 mm 1 mps 742 mmHg 41%
    18:00 +17°C° 0 mm 2 mps 742 mmHg 47%
    19:00 +15°C° 0 mm 2 mps 741 mmHg 53%
    20:00 +13°C° 0 mm 3 mps 741 mmHg 58%
    21:00 +12°C° 0 mm 3 mps 741 mmHg 60%
    22:00 +12°C° 0 mm 3 mps 741 mmHg 62%
    23:00 +11°C° 0 mm 3 mps 741 mmHg 64%

    24 April, Tuesday

    Time Temperature Precipitation Wind Pressure Humidity
    00:00 +11°C° 0 mm 4 mps 740 mmHg 65%
    01:00 +11°C° 0 mm 4 mps 740 mmHg 66%
    02:00 +11°C° 0 mm 4 mps 739 mmHg 66%
    03:00 +11°C° 0.1 mm 4 mps 739 mmHg 69%
    04:00 +11°C° 0.1 mm 4 mps 738 mmHg 71%
    05:00 +11°C° 0.1 mm 4 mps 738 mmHg 74%
    06:00 +11°C° 0.6 mm 3 mps 738 mmHg 78%
    07:00 +12°C° 0.6 mm 3 mps 737 mmHg 83%
    08:00 +12°C° 0.6 mm 3 mps 737 mmHg 88%
    09:00 +13°C° 0.4 mm 4 mps 737 mmHg 87%
    10:00 +13°C° 0.4 mm 4 mps 737 mmHg 86%
    11:00 +13°C° 0.4 mm 4 mps 737 mmHg 85%
    12:00 +15°C° 0 mm 5 mps 737 mmHg 76%
    13:00 +16°C° 0 mm 5 mps 737 mmHg 66%
    14:00 +17°C° 0 mm 5 mps 737 mmHg 57%
    15:00 +17°C° 0 mm 5 mps 737 mmHg 53%
    16:00 +18°C° 0 mm 4 mps 737 mmHg 49%
    17:00 +19°C° 0 mm 4 mps 737 mmHg 46%
    18:00 +17°C° 0 mm 3 mps 737 mmHg 53%
    19:00 +14°C° 0 mm 3 mps 737 mmHg 61%
    20:00 +13°C° 0 mm 2 mps 737 mmHg 69%
    21:00 +11°C° 0.1 mm 3 mps 737 mmHg 74%
    22:00 +11°C° 0.1 mm 3 mps 737 mmHg 79%
    23:00 +10°C° 0.1 mm 3 mps 738 mmHg 84%
    Show more